User: anonymous   Login
Location: Oberwangen
(47.4286°N, 8.9679°E)
Time: 04:19:24
(UTC+00:00)
Language:

Cosmos 1328 - Orbit

View from above orbital plane
View from above orbital plane
View from above satellite
View from above satellite

Ground track
Ground track

The orbit data is extracted from the following two-line orbital elements,

1 12987U 81117A   21261.48410735  .00001390  00000-0  86854-4 0  9997
2 12987  82.5169 167.1596 0021465  93.4331 266.9353 15.08481667166728
Epoch (UTC): 18 September 2021 11:37:06
Eccentricity: 0.0021465
inclination: 82.5169°
perigee height: 526 km
apogee height: 555 km
right ascension of ascending node: 167.1596°
argument of perigee: 93.4331°
revolutions per day: 15.08481667
mean anomaly at epoch: 266.9353°
orbit number at epoch: 16672

The dashed part of the orbit path shows where the satellite is in the earth's shadow,  

DLR